| time (UTC) | temp F | wind direction | speed MPH | gust MPH | rain 1hr in | rain 24hr in | rain mn in | humidity % | barometer mb |
| 20260903003100 | 84 | 215 | 1.0 | 7.0 | 0.00 | 0.00 | 0.00 | 80 | 1017.5 |
| 20260903001602 | 84 | 215 | 0.0 | 7.0 | 0.00 | 0.00 | 0.00 | 79 | 1017.7 |
| 20260903000053 | 84 | 202 | 3.0 | 7.0 | 0.00 | 0.00 | 0.00 | 79 | 1017.2 |
| 20260902234601 | 84 | 200 | 2.0 | 7.0 | 0.00 | 0.00 | 0.00 | 78 | 1017.2 |
| 20260902233101 | 84 | 202 | 2.0 | 10.0 | 0.00 | 0.00 | 0.00 | 77 | 1017.1 |
| 20260902231556 | 85 | 204 | 3.0 | 8.0 | 0.00 | 0.00 | 0.00 | 76 | 1017.1 |
| 20260902230052 | 85 | 214 | 3.0 | 9.0 | 0.00 | 0.00 | 0.00 | 75 | 1017.2 |
| 20260902224603 | 86 | 176 | 3.0 | 13.0 | 0.00 | 0.00 | 0.00 | 75 | 1017.0 |
| 20260902223051 | 86 | 259 | 6.0 | 12.0 | 0.00 | 0.00 | 0.00 | 74 | 1017.0 |
| 20260902221553 | 86 | 186 | 6.0 | 11.0 | 0.00 | 0.00 | 0.00 | 73 | 1017.1 |
| 20260902220057 | 87 | 210 | 4.0 | 11.0 | 0.00 | 0.00 | 0.00 | 70 | 1017.1 |
| 20260902214551 | 87 | 159 | 4.0 | 11.0 | 0.00 | 0.00 | 0.00 | 71 | 1016.9 |
| 20260902213101 | 87 | 209 | 6.0 | 13.0 | 0.00 | 0.00 | 0.00 | 70 | 1016.7 |
| 20260902211551 | 87 | 126 | 4.0 | 13.0 | 0.00 | 0.00 | 0.00 | 70 | 1016.7 |
| 20260902210049 | 87 | 235 | 8.0 | 17.0 | 0.00 | 0.00 | 0.00 | 71 | 1016.7 |
| 20260902204548 | 88 | 203 | 8.0 | 14.0 | 0.00 | 0.00 | 0.00 | 73 | 1016.8 |
| 20260902203100 | 88 | 155 | 4.0 | 15.0 | 0.00 | 0.00 | 0.00 | 74 | 1017.1 |
| 20260902201546 | 89 | 226 | 8.0 | 15.0 | 0.00 | 0.00 | 0.00 | 70 | 1017.2 |
| 20260902200053 | 90 | 157 | 2.0 | 10.0 | 0.00 | 0.00 | 0.00 | 70 | 1017.2 |
| 20260902194544 | 90 | 195 | 5.0 | 13.0 | 0.00 | 0.00 | 0.00 | 68 | 1017.6 |
| 20260902193045 | 91 | 166 | 2.0 | 10.0 | 0.00 | 0.00 | 0.00 | 68 | 1017.6 |
| 20260902191551 | 92 | 213 | 2.0 | 8.0 | 0.00 | 0.00 | 0.00 | 66 | 1017.7 |
| 20260902190043 | 93 | 132 | 4.0 | 7.0 | 0.00 | 0.00 | 0.00 | 64 | 1017.7 |
| 20260902184550 | 93 | 205 | 4.0 | 8.0 | 0.00 | 0.00 | 0.00 | 62 | 1017.7 |
| 20260902183043 | 94 | 203 | 3.0 | 7.0 | 0.00 | 0.00 | 0.00 | 61 | 1017.7 |
| 20260902181542 | 94 | 152 | 3.0 | 8.0 | 0.00 | 0.00 | 0.00 | 63 | 1017.7 |
| 20260902180041 | 94 | 178 | 4.0 | 8.0 | 0.00 | 0.00 | 0.00 | 61 | 1017.8 |
| 20260902174538 | 93 | 156 | 3.0 | 8.0 | 0.00 | 0.00 | 0.00 | 62 | 1018.0 |
| 20260902173038 | 92 | 140 | 5.0 | 10.0 | 0.00 | 0.00 | 0.00 | 64 | 1018.1 |
| 20260902171538 | 92 | 157 | 4.0 | 8.0 | 0.00 | 0.00 | 0.00 | 64 | 1018.1 |
| 20260902170044 | 91 | 176 | 4.0 | 9.0 | 0.00 | 0.00 | 0.00 | 64 | 1018.0 |
| 20260902164537 | 91 | 159 | 4.0 | 10.0 | 0.00 | 0.00 | 0.00 | 66 | 1017.9 |
| 20260902163043 | 92 | 134 | 3.0 | 10.0 | 0.00 | 0.00 | 0.00 | 65 | 1018.2 |
| 20260902161534 | 92 | 182 | 2.0 | 6.0 | 0.00 | 0.00 | 0.00 | 63 | 1018.2 |
| 20260902160031 | 91 | 253 | 3.0 | 8.0 | 0.00 | 0.00 | 0.00 | 59 | 1018.2 |
| 20260902154529 | 91 | 240 | 2.0 | 6.0 | 0.00 | 0.00 | 0.00 | 61 | 1018.2 |
| 20260902153026 | 89 | 255 | 2.0 | 8.0 | 0.00 | 0.00 | 0.00 | 62 | 1018.2 |
| 20260902151523 | 89 | 317 | 3.0 | 5.0 | 0.00 | 0.00 | 0.00 | 63 | 1018.2 |
| 20260902150020 | 88 | 318 | 4.0 | 8.0 | 0.00 | 0.00 | 0.00 | 62 | 1018.3 |
| 20260902144520 | 87 | 298 | 2.0 | 5.0 | 0.00 | 0.00 | 0.00 | 63 | 1018.3 |
| 20260902143015 | 86 | 282 | 2.0 | 4.0 | 0.00 | 0.00 | 0.00 | 66 | 1018.2 |
| 20260902141512 | 85 | 251 | 1.0 | 5.0 | 0.00 | 0.00 | 0.00 | 66 | 1018.2 |
| 20260902140009 | 85 | 292 | 2.0 | 6.0 | 0.00 | 0.00 | 0.00 | 71 | 1018.2 |
| 20260902134507 | 84 | 298 | 3.0 | 9.0 | 0.00 | 0.00 | 0.00 | 70 | 1018.2 |
| 20260902133004 | 83 | 320 | 2.0 | 7.0 | 0.00 | 0.00 | 0.00 | 75 | 1018.3 |
| 20260902131606 | 82 | 261 | 2.0 | 8.0 | 0.00 | 0.00 | 0.00 | 76 | 1018.3 |
| 20260902130057 | 82 | 237 | 3.0 | 7.0 | 0.00 | 0.00 | 0.00 | 79 | 1018.6 |
| 20260902124557 | 81 | 254 | 2.0 | 6.0 | 0.00 | 0.00 | 0.00 | 81 | 1018.7 |
| 20260902123119 | 80 | 259 | 1.0 | 5.0 | 0.00 | 0.00 | 0.00 | 84 | 1018.8 |
| 20260902121559 | 79 | 317 | 1.0 | 5.0 | 0.00 | 0.00 | 0.00 | 86 | 1018.8 |
| 20260902120106 | 79 | 269 | 1.0 | 5.0 | 0.00 | 0.00 | 0.00 | 88 | 1018.7 |
| 20260902114553 | 78 | 236 | 1.0 | 4.0 | 0.00 | 0.00 | 0.00 | 89 | 1018.5 |
| 20260902113053 | 78 | 250 | 0.0 | 3.0 | 0.00 | 0.00 | 0.00 | 89 | 1018.3 |
| 20260902111601 | 78 | 251 | 1.0 | 4.0 | 0.00 | 0.00 | 0.00 | 88 | 1018.5 |
| 20260902110050 | 78 | 251 | 1.0 | 4.0 | 0.00 | 0.00 | 0.00 | 88 | 1018.3 |
| 20260902104551 | 78 | 263 | 0.0 | 3.0 | 0.00 | 0.00 | 0.00 | 88 | 1018.2 |
| 20260902103050 | 78 | 263 | 1.0 | 3.0 | 0.00 | 0.00 | 0.00 | 89 | 1018.2 |
| 20260902101550 | 78 | 263 | 1.0 | 2.0 | 0.00 | 0.00 | 0.00 | 89 | 1018.1 |
| 20260902094547 | 78 | 263 | 0.0 | 2.0 | 0.00 | 0.00 | 0.00 | 88 | 1017.8 |
| 20260902093047 | 78 | 263 | 0.0 | 0.0 | 0.00 | 0.00 | 0.00 | 88 | 1017.9 |
| 20260902091551 | 78 | 263 | 0.0 | 0.0 | 0.00 | 0.00 | 0.00 | 88 | 1017.8 |
| 20260902090045 | 78 | 263 | 0.0 | 0.0 | 0.00 | 0.00 | 0.00 | 88 | 1017.8 |
| 20260902084545 | 78 | 263 | 0.0 | 3.0 | 0.00 | 0.00 | 0.00 | 87 | 1017.7 |
| 20260902083045 | 78 | 263 | 0.0 | 4.0 | 0.00 | 0.00 | 0.00 | 87 | 1017.7 |
| 20260902081542 | 79 | 263 | 0.0 | 2.0 | 0.00 | 0.00 | 0.00 | 87 | 1017.6 |
| 20260902080042 | 79 | 261 | 0.0 | 3.0 | 0.00 | 0.00 | 0.00 | 87 | 1017.7 |
| 20260902074544 | 79 | 261 | 1.0 | 3.0 | 0.00 | 0.00 | 0.00 | 87 | 1017.7 |
| 20260902073040 | 79 | 262 | 1.0 | 4.0 | 0.00 | 0.00 | 0.00 | 86 | 1017.7 |
| 20260902071538 | 79 | 262 | 0.0 | 3.0 | 0.00 | 0.00 | 0.00 | 86 | 1017.6 |
| 20260902070038 | 79 | 262 | 1.0 | 3.0 | 0.00 | 0.00 | 0.00 | 86 | 1017.7 |
| 20260902064536 | 80 | 262 | 0.0 | 2.0 | 0.00 | 0.00 | 0.00 | 86 | 1017.8 |
| 20260902063048 | 80 | 262 | 2.0 | 3.0 | 0.00 | 0.00 | 0.00 | 85 | 1018.1 |
| 20260902061532 | 81 | 238 | 1.0 | 3.0 | 0.00 | 0.00 | 0.00 | 85 | 1018.2 |
| 20260902060031 | 81 | 236 | 0.0 | 4.0 | 0.00 | 0.00 | 0.00 | 84 | 1018.2 |
| 20260902054537 | 81 | 229 | 1.0 | 4.0 | 0.00 | 0.00 | 0.00 | 84 | 1018.2 |
| 20260902053030 | 81 | 227 | 2.0 | 4.0 | 0.00 | 0.00 | 0.00 | 83 | 1017.9 |
| 20260902051531 | 81 | 232 | 0.0 | 4.0 | 0.00 | 0.00 | 0.00 | 82 | 1017.9 |
| 20260902050053 | 81 | 223 | 1.0 | 4.0 | 0.00 | 0.00 | 0.00 | 82 | 1017.9 |
| 20260902044527 | 81 | 224 | 0.0 | 3.0 | 0.00 | 0.00 | 0.00 | 82 | 1017.7 |
| 20260902043032 | 81 | 269 | 1.0 | 6.0 | 0.00 | 0.00 | 0.00 | 82 | 1017.7 |
| 20260902041524 | 81 | 213 | 1.0 | 4.0 | 0.00 | 0.00 | 0.00 | 81 | 1017.5 |
| 20260902040023 | 81 | 205 | 1.0 | 4.0 | 0.00 | 0.00 | 0.00 | 81 | 1017.3 |
| 20260902034524 | 82 | 203 | 1.0 | 5.0 | 0.00 | 0.00 | 0.00 | 80 | 1017.3 |
| 20260902033023 | 82 | 221 | 1.0 | 8.0 | 0.00 | 0.00 | 0.00 | 80 | 1017.2 |
| 20260902031522 | 82 | 209 | 2.0 | 7.0 | 0.00 | 0.00 | 0.00 | 80 | 1017.2 |
| 20260902030021 | 82 | 200 | 3.0 | 9.0 | 0.00 | 0.00 | 0.00 | 80 | 1017.2 |
| 20260902024521 | 82 | 211 | 2.0 | 7.0 | 0.00 | 0.00 | 0.00 | 80 | 1017.2 |
| 20260902023021 | 82 | 200 | 2.0 | 9.0 | 0.00 | 0.00 | 0.00 | 80 | 1017.2 |
| 20260902021519 | 82 | 214 | 2.0 | 5.0 | 0.00 | 0.00 | 0.00 | 79 | 1017.3 |
| 20260902020018 | 82 | 238 | 1.0 | 8.0 | 0.00 | 0.00 | 0.00 | 79 | 1017.4 |
| 20260902014518 | 82 | 218 | 2.0 | 7.0 | 0.00 | 0.00 | 0.00 | 79 | 1017.2 |
| 20260902013017 | 82 | 198 | 2.0 | 8.0 | 0.00 | 0.00 | 0.00 | 79 | 1017.2 |
| 20260902011517 | 83 | 218 | 3.0 | 11.0 | 0.00 | 0.00 | 0.00 | 79 | 1017.2 |
| 20260902010016 | 83 | 181 | 5.0 | 9.0 | 0.00 | 0.00 | 0.00 | 79 | 1017.2 |
| 20260902004517 | 83 | 213 | 3.0 | 8.0 | 0.00 | 0.00 | 0.00 | 79 | 1017.2 |